This demonstration page uses our WeatherBlox Daily Observations layout. Learn more.

Left ArrowRight Arrow

Hourly Observations for July 1, 2016

Temp ( °F °C ) Dew Point ( °F °C ) Humidity (%) Winds ( mph kmh ) Pressure ( in mb ) Visibility ( mi km ) Precip ( " mm )
12:15 am 00:15 Clear 64 17.7 60 15.8 89 89 NNE 3 6 30.06 1018 10 16 N/A
12:35 am 00:35 Clear 64 18 60 15.7 87 87 NNE 5 7 30.06 1018 10 16 N/A
12:55 am 00:55 Partly Cloudy 64 18 60 15.7 87 87 NE 3 6 30.06 1018 10 16 N/A
1:15 am 01:15 Clear 64 17.6 60 15.5 88 88 NE 7 11 30.06 1018 10 16 N/A
1:35 am 01:35 Clear 64 17.5 60 15.4 88 88 NE 6 9 30.06 1018 10 16 N/A
1:55 am 01:55 Clear 63 17.4 60 15.3 88 88 NE 7 11 30.06 1018 10 16 N/A
2:15 am 02:15 Clear 63 17.2 60 15.3 89 89 NE 7 11 30.06 1018 10 16 N/A
2:35 am 02:35 Clear 63 17 59 15.1 89 89 NE 7 11 30.09 1019 10 16 N/A
2:55 am 02:55 Clear 62 16.8 59 15 89 89 NE 5 7 30.09 1019 10 16 N/A
3:15 am 03:15 Clear 62 16.5 59 15 91 91 NE 8 13 30.09 1019 10 16 N/A
3:35 am 03:35 Clear 62 16.5 59 15 91 91 NE 6 9 30.09 1019 10 16 N/A
3:55 am 03:55 Partly Cloudy 62 16.5 59 14.8 90 90 NE 3 6 30.09 1019 10 16 N/A
4:15 am 04:15 Partly Cloudy 61 16 58 14.5 91 91 NE 5 7 30.09 1019 10 16 N/A
4:55 am 04:55 Clear 61 16 58 14.5 91 91 ENE 6 9 30.09 1019 10 16 N/A
5:15 am 05:15 Clear 61 16 58 14.5 91 91 ENE 7 11 30.09 1019 10 16 N/A
5:35 am 05:35 Clear 61 16 58 14.3 90 90 E 6 9 30.12 1020 10 16 N/A
5:55 am 05:55 Partly Cloudy 61 16 58 14.2 89 89 ENE 8 13 30.12 1020 10 16 N/A
6:15 am 06:15 Partly Cloudy 61 16.1 58 14.2 89 89 E 8 13 30.12 1020 10 16 N/A
6:35 am 06:35 Partly Cloudy 61 16.1 57 14.1 88 88 ENE 7 11 30.12 1020 10 16 N/A
6:55 am 06:55 Mostly Cloudy 61 16.3 58 14.3 88 88 E 6 9 30.12 1020 10 16 N/A
7:15 am 07:15 Mostly Cloudy 62 16.5 58 14.4 87 87 E 7 11 30.12 1020 10 16 N/A
7:35 am 07:35 Mostly Cloudy 63 17 58 14.5 85 85 E 8 13 30.12 1020 10 16 N/A
7:55 am 07:55 Partly Cloudy 63 17.4 58 14.3 82 82 E 10 17 30.12 1020 10 16 N/A
8:15 am 08:15 Partly Cloudy 63 17.3 58 14.2 82 82 E 9 15 30.12 1020 10 16 N/A
8:35 am 08:35 Mostly Cloudy 64 17.5 58 14.2 81 81 ESE 9 15 30.09 1019 10 16 N/A
8:55 am 08:55 Partly Cloudy 65 18.1 58 14.5 80 80 ESE 10 17 30.09 1019 10 16 N/A
9:15 am 09:15 Sunny 66 18.8 58 14.6 77 77 ESE 10 17 30.09 1019 10 16 N/A
9:35 am 09:35 Sunny 67 19.3 59 15.1 77 77 E 9 15 30.09 1019 10 16 N/A
9:55 am 09:55 Sunny 67 19.5 60 15.4 77 77 ESE 8 13 30.09 1019 10 16 N/A
10:15 am 10:15 Sunny 69 20.3 61 16.2 77 77 E 10 17 30.09 1019 10 16 N/A
10:35 am 10:35 Sunny 69 20.5 60 15.8 75 75 ESE 10 17 30.09 1019 10 16 N/A
10:55 am 10:55 Sunny 70 21.1 61 16.3 74 74 ESE 12 19 30.03 1017 10 16 N/A
11:15 am 11:15 Sunny 71 21.5 61 15.9 71 71 ESE 10 17 30.03 1017 10 16 N/A
11:35 am 11:35 Sunny 71 21.6 61 16.2 71 71 ESE 9 15 30.03 1017 10 16 N/A
11:55 am 11:55 Sunny 72 22.1 61 16.2 69 69 E 10 17 30.03 1017 10 16 N/A
12:15 pm 12:15 Sunny 73 22.9 61 16.1 66 66 E 12 19 30.03 1017 10 16 N/A
12:35 pm 12:35 Partly Cloudy 73 22.6 59 15.1 63 63 ESE 13 20 30.03 1017 10 16 N/A
12:55 pm 12:55 Cloudy 73 22.5 58 14.7 61 61 SE 10 17 30.03 1017 10 16 N/A
1:15 pm 13:15 Mostly Cloudy 73 22.9 59 14.9 61 61 SE 13 20 30.03 1017 10 16 N/A
1:35 pm 13:35 Mostly Cloudy 74 23.1 58 14.6 59 59 ESE 15 24 30.03 1017 10 16 N/A
1:55 pm 13:55 Mostly Cloudy 75 23.7 59 15.1 59 59 SE 10 17 30.03 1017 10 16 N/A
2:15 pm 14:15 Mostly Cloudy 75 23.8 58 14.7 57 57 SE 13 20 30.03 1017 10 16 N/A
2:35 pm 14:35 Mostly Cloudy with Light Rain 73 22.8 58 14.5 60 60 SE 12 19 30.03 1017 10 16 N/A
2:55 pm 14:55 Cloudy with Light Rain 72 22.4 61 15.9 67 67 SE 10 17 30.03 1017 10 16 N/A
3:15 pm 15:15 Mostly Cloudy with Light Rain 72 22.1 61 16.1 69 69 ESE 9 15 30.03 1017 10 16 N/A
3:35 pm 15:35 Mostly Cloudy 72 22.2 61 15.9 68 68 ESE 10 17 30.03 1017 10 16 N/A
3:55 pm 15:55 Mostly Cloudy 73 22.7 60 15.5 64 64 ESE 12 19 30.03 1017 10 16 N/A
4:15 pm 16:15 Cloudy 73 22.7 59 14.8 61 61 ESE 10 17 30.03 1017 10 16 N/A
4:35 pm 16:35 Cloudy 73 22.5 58 14.5 61 61 ESE 9 15 30.00 1016 10 16 N/A
4:55 pm 16:55 Cloudy 72 22.2 59 14.8 63 63 SE 9 15 30.00 1016 10 16 N/A
5:15 pm 17:15 Cloudy 72 22.2 59 15 64 64 ESE 8 13 30.00 1016 10 16 N/A
5:35 pm 17:35 Cloudy 72 22.2 59 15 64 64 ESE 7 11 30.00 1016 10 16 N/A
5:55 pm 17:55 Mostly Cloudy 72 22.2 58 14.2 61 61 ESE 9 15 30.00 1016 10 16 N/A
6:15 pm 18:15 Mostly Cloudy 71 21.8 58 14.6 64 64 ESE 9 15 29.97 1015 10 16 N/A
6:35 pm 18:35 Cloudy 71 21.5 58 14.5 65 65 E 8 13 29.97 1015 10 16 N/A
6:55 pm 18:55 Sunny 79 26.1 58 14.6 49 49 NNE 10 17 29.94 1014 10 16 N/A
7:15 pm 19:15 Cloudy 71 21.5 59 14.9 66 66 E 10 17 29.97 1015 10 16 N/A
7:35 pm 19:35 Cloudy 70 21.3 57 13.9 63 63 E 9 15 29.97 1015 10 16 N/A
7:55 pm 19:55 Cloudy 70 21.1 56 13.3 61 61 ESE 9 15 29.97 1015 10 16 N/A
8:15 pm 20:15 Cloudy 70 21 56 13.4 62 62 ESE 8 13 29.97 1015 10 16 N/A
8:35 pm 20:35 Cloudy 69 20.8 56 13.5 63 63 ESE 9 15 29.97 1015 10 16 N/A
8:55 pm 20:55 Cloudy 69 20.7 55 12.5 60 60 ESE 10 17 29.97 1015 10 16 N/A
9:15 pm 21:15 Cloudy 69 20.5 53 11.8 58 58 ESE 12 19 29.97 1015 10 16 N/A
9:35 pm 21:35 Cloudy 68 20.1 54 12 60 60 ESE 9 15 29.97 1015 10 16 N/A
9:55 pm 21:55 Cloudy 67 19.6 54 12.1 62 62 E 8 13 30.00 1016 10 16 N/A
10:15 pm 22:15 Cloudy 67 19.5 55 12.5 64 64 E 7 11 30.00 1016 10 16 N/A
10:35 pm 22:35 Cloudy 67 19.2 55 12.7 66 66 E 9 15 30.00 1016 10 16 N/A
10:55 pm 22:55 Cloudy 66 19.1 55 12.8 67 67 E 12 19 29.97 1015 10 16 N/A
11:15 pm 23:15 Partly Cloudy 65 18.6 55 12.7 69 69 E 8 13 29.97 1015 10 16 N/A
11:35 pm 23:35 Mostly Cloudy 65 18.5 55 12.6 69 69 E 8 13 30.00 1016 10 16 N/A
11:55 pm 23:55 Cloudy 65 18.6 54 12.2 67 67 E 7 11 30.00 1016 10 16 N/A

Powered by AerisWeather